Simultaneous Nadir Overpasses (SNOs) Predictions

Prediction of SNOs between LANDSAT-8 and NOAA-19 Satellite Orbit:

Table of predicted SNOs for the next 14.0 days since TLE Epoch: 4/28/2018
Index Date (LANDSAT-8) Time (LANDSAT-8) Lat,Lon (LANDSAT-8) SZA (LANDSAT-8 ) Date (NOAA-19) Time (NOAA-19) Lat,Lon (NOAA-19) SZA (NOAA-19 ) Distance(km) Time Diff (sec)
1 04/28/2018 22:53:08 -77.51, 29.80 116.55 04/28/2018 22:52:36 -77.52, 29.72 116.55 2.18 32
2 04/28/2018 23:42:35 77.45,-162.77 63.38 04/28/2018 23:43:38 77.46,-162.75 63.40 0.79 63
3 05/01/2018 04:26:50 77.51, 126.39 62.78 05/01/2018 04:26:15 77.49, 126.50 62.76 3.25 35
4 05/01/2018 05:16:18 -77.48, -66.11 117.28 05/01/2018 05:17:13 -77.48, -66.17 117.27 1.41 55
5 05/03/2018 10:00:33 -77.53,-136.95 117.86 05/03/2018 09:59:51 -77.53,-137.01 117.87 1.67 42
6 05/03/2018 10:50:00 77.48, 30.46 62.07 05/03/2018 10:50:52 77.48, 30.47 62.09 0.77 52
7 05/05/2018 15:34:15 77.53, -40.40 61.50 05/05/2018 15:33:29 77.52, -40.31 61.49 2.24 46
8 05/05/2018 16:23:43 -77.50, 127.12 118.55 05/05/2018 16:24:28 -77.50, 127.07 118.54 1.21 45
9 05/07/2018 21:07:58 -77.55, 56.26 119.09 05/07/2018 21:07:06 -77.56, 56.20 119.11 1.55 52
10 05/07/2018 21:57:25 77.49,-136.36 60.82 05/07/2018 21:58:06 77.52,-136.37 60.86 3.33 41
11 05/10/2018 02:41:40 77.54, 152.76 60.30 05/10/2018 02:40:43 77.57, 152.82 60.31 3.42 57




NCC Satellite Simultaneous Nadir Overpasses (SNOs) Prediction Service
